Regional Weather Roundup
Issued by NWS

Home | Current Version | Previous Version | Text Only | Print | Product List | Glossary On
Versions: 1 2 3 4 5 6 7 8 9 10 11 12 13 14 15 16 17 18 19 20 21 22 23 24 25 26 27 28
000
ASUS44 KJAN 212010
RWRMS

MISSISSIPPI HOURLY WEATHER ROUNDUP
NATIONAL WEATHER SERVICE JACKSON MS
200 PM CST TUE NOV 21 2017

NOTE: "FAIR: INDICATES FEW OR NO CLOUDS BELOW 12,000 FEET WITH NO
SIGNIFICANT WEATHER AND/OR OBSTRUCTIONS TO VISIBILITY.

MSZ001>002-007>008-010>013-018>021-025>028-034>036-212100-
NORTHWEST MISSISSIPPI

CITY           SKY/WX    TMP DP  RH WIND       PRES   REMARKS
BATESVILLE     FAIR      61  31  32 SW3       30.03F
CLARKSDALE       N/A     61  37  41 CALM      30.03S
CLEVELAND      FAIR      62  39  42 CALM      30.02S
GREENWOOD      MOSUNNY   64  35  34 CALM      30.01F
GREENVILLE     MOSUNNY   64  36  35 CALM      30.01S
OLIVE BRANCH   PTSUNNY  N/A N/A N/A SW6       29.99F
OXFORD         FAIR      59  30  33 W6        30.03F
TUNICA           N/A    N/A N/A N/A SW6       30.03F
WINONA         CLOUDY    59  37  42 CALM      30.01F
$$

MSZ003>006-009-014>017-022>024-029>033-037>039-212100-
NORTHEAST MISSISSIPPI

CITY           SKY/WX    TMP DP  RH WIND       PRES   REMARKS
ABERDEEN       FAIR      63  48  59 CALM      30.03F
COLUMBUS AFB   CLOUDY    60  40  47 W5        30.01F
CORINTH        MOCLDY    59  34  38 S6        30.02S
GOLDN TRIANGLE MOSUNNY   61  36  39 CALM      30.02F
STARKVILLE     FAIR      63  34  34 CALM      30.02F
TUPELO         MOSUNNY   59  34  39 S7        30.03F
$$

MSZ040-058-212100-
CENTRAL MISSISSIPPI

CITY           SKY/WX    TMP DP  RH WIND       PRES   REMARKS
JACKSON INTL   CLOUDY    65  45  48 CALM      29.99F
JACKSON HAWKNS MOSUNNY   62  44  51 E3        29.99F
MADISON        FAIR      61  45  55 CALM      29.99F
MERIDIAN KEY   CLOUDY    67  46  47 N5        30.00F
MERIDIAN NAS   PTSUNNY   64  44  48 CALM      30.01F
RAYMOND        FAIR      63  46  55 CALM      29.99S
VICKSBURG VKS  PTCLDY    64  43  45 CALM      30.00F
$$

MSZ059>079-212100-
SOUTH MISSISSIPPI

CITY           SKY/WX    TMP DP  RH WIND       PRES   REMARKS
COLUMBIA       CLOUDY    66  52  59 CALM      30.02F
HATTIESBURG    PTSUNNY   68  51  54 W6        29.99S
LAUREL         FAIR      67  44  44 W5        29.99F
MCCOMB         CLOUDY    66  49  54 CALM      29.97F
NATCHEZ        PTSUNNY   64  49  57 SE3       29.98F
PINE BELT      SUNNY     66  49  54 W7        30.00S
$$

MSZ080>082-212100-
COASTAL MISSISSIPPI

CITY           SKY/WX    TMP DP  RH WIND       PRES   REMARKS
BAY ST LOUIS   PTSUNNY   70  57  64 E5        29.97F
BILOXI         PTSUNNY   70  56  61 SE3       29.96F
PASCAGOULA     MOSUNNY   72  50  45 VRB5      29.96F
GULFPORT       MOSUNNY   69  56  62 VRB3      29.96F
$$

LAZ007>009-015>016-023>026-212100-
NORTHEAST LOUISIANA

CITY           SKY/WX    TMP DP  RH WIND       PRES   REMARKS
BASTROP        CLOUDY    64  43  47 CALM      30.00S
TALLULAH/VBURG PTSUNNY   63  42  46 CALM      30.00S
VIDALIA          N/A    N/A N/A N/A MISG      29.97F
$$




USA.gov is the U.S. government's official web portal to all federal, state and local government web resources and services.